Hailey, ID

12:13 PM MDT on October 14, 2019 (GMT -0600)
Friedman Memorial

Weather History for KSUN - September, 2019

Change the Weather History Date:

Friday, September 20, 2019

  Actual Average Record
Temperature  
Mean Temperature 46 °F -  
Max Temperature 51 °F 69 °F 80 °F (1999)
Min Temperature 41 °F 40 °F 32 °F (1996)
Degree Days  
Heating Degree Days 19    
Moisture  
Dew Point 42 °F    
Average Humidity 94    
Maximum Humidity 100    
Minimum Humidity 76    
Precipitation  
Precipitation 0.01 in - - ()
Sea Level Pressure  
Sea Level Pressure 29.96 in    
Wind  
Wind Speed 3 mph (WNW)    
Max Wind Speed 9 mph    
Max Gust Speed -    
Visibility 10 miles    
Events Rain    
Averages and records for this station are not official NWS values.
T = Trace of Precipitation, MM = Missing Value Source: NWS Daily Summary

Daily Weather History Graph

Daily Weather History Graph

Search for Another Location

Airport or City:

Astronomy

Sep. 20, 2019 Rise Set
Actual Time 7:22 AM MDT 7:38 PM MDT
Civil Twilight 6:53 AM MDT 8:07 PM MDT
Nautical Twilight 6:19 AM MDT 8:40 PM MDT
Astronomical Twilight 5:45 AM MDT 9:14 PM MDT
Moon 11:20 PM MDT (9/20) 1:41 PM MDT (9/20)
Length of Visible Light 13h 13m
Length of Day
12h 16m
Waning Gibbous, 64% of the Moon is Illuminated
Sep 20
Waning Gibbous
Sep 21
Last Quarter
Sep 28
New
Oct 5
First Quarter
Oct 13
Full

Hourly Weather History & Observations

Time (MDT) Temp. Windchill Dew Point Humidity Pressure Visibility Wind Dir Wind Speed Gust Speed Precip Events Conditions
12:15 AM 42.8 °F 40.1 °F 41.0 °F 93% 29.94 in 10.0 mi NW 4.6 mph - N/A   Mostly Cloudy
12:35 AM 42.8 °F 38.6 °F 41.0 °F 93% 29.94 in 10.0 mi NW 6.9 mph - N/A   Mostly Cloudy
12:55 AM 42.8 °F - 41.0 °F 93% 29.95 in 10.0 mi Calm Calm - N/A   Overcast
1:15 AM 42.8 °F - 41.0 °F 93% 29.95 in 10.0 mi Calm Calm - N/A   Overcast
1:35 AM 42.8 °F - 41.0 °F 93% 29.94 in 10.0 mi Calm Calm - N/A   Mostly Cloudy
1:55 AM 41.0 °F - 41.0 °F 100% 29.95 in 10.0 mi Calm Calm - N/A   Scattered Clouds
2:15 AM 41.0 °F - 41.0 °F 100% 29.95 in 10.0 mi Calm Calm - N/A   Mostly Cloudy
2:35 AM 41.0 °F - 41.0 °F 100% 29.95 in 10.0 mi Calm Calm - N/A   Overcast
2:55 AM 41.0 °F - 41.0 °F 100% 29.93 in 10.0 mi Calm Calm - N/A   Mostly Cloudy
3:15 AM 41.0 °F - 37.4 °F 87% 29.93 in 10.0 mi Calm Calm - N/A   Clear
3:35 AM 41.0 °F - 39.2 °F 93% 29.94 in 10.0 mi Calm Calm - N/A   Mostly Cloudy
3:55 AM 41.0 °F - 41.0 °F 100% 29.94 in 10.0 mi Calm Calm - N/A   Overcast
4:15 AM 41.0 °F - 41.0 °F 100% 29.94 in 10.0 mi Calm Calm - N/A   Overcast
4:35 AM 41.0 °F - 41.0 °F 100% 29.94 in 10.0 mi Calm Calm - N/A   Overcast
4:55 AM 41.0 °F - 41.0 °F 100% 29.94 in 10.0 mi Calm Calm - N/A   Overcast
5:15 AM 41.0 °F 39.0 °F 41.0 °F 100% 29.94 in 10.0 mi WNW 3.5 mph - N/A   Overcast
5:35 AM 42.8 °F 41.1 °F 41.0 °F 93% 29.94 in 10.0 mi NW 3.5 mph - N/A Rain Rain
5:55 AM 41.0 °F 38.0 °F 41.0 °F 100% 29.94 in 10.0 mi WNW 4.6 mph - 0.01 in Rain Light Rain
6:15 AM 41.0 °F 37.1 °F 41.0 °F 100% 29.93 in 10.0 mi WNW 5.8 mph - N/A   Overcast
6:35 AM 41.0 °F 35.2 °F 41.0 °F 100% 29.93 in 10.0 mi NW 9.2 mph - N/A   Scattered Clouds
6:51 AM 42.8 °F 38.0 °F 39.2 °F 87% 29.93 in 10.0 mi WNW 8.1 mph - N/A   Scattered Clouds
6:55 AM 41.0 °F 35.8 °F 41.0 °F 100% 29.93 in 10.0 mi WNW 8.1 mph - N/A   Mostly Cloudy
7:15 AM 41.0 °F 38.0 °F 39.2 °F 93% 29.93 in 10.0 mi NW 4.6 mph - N/A   Scattered Clouds
7:35 AM 41.0 °F - 39.2 °F 93% 29.94 in 10.0 mi Calm Calm - N/A   Scattered Clouds
7:58 AM 42.8 °F - 41.0 °F 93% 29.93 in 10.0 mi Calm Calm - N/A   Mostly Cloudy
8:49 AM 42.8 °F - 42.8 °F 100% 29.94 in 10.0 mi Calm Calm - N/A   Mostly Cloudy
9:47 AM 46.4 °F 44.3 °F 41.0 °F 81% 29.93 in 10.0 mi WNW 4.6 mph - N/A   Overcast
10:47 AM 46.4 °F 41.9 °F 44.6 °F 93% 29.94 in 7.0 mi ESE 9.2 mph - N/A   Mostly Cloudy
11:47 AM 44.6 °F 39.7 °F 44.6 °F 100% 29.95 in 5.0 mi ESE 9.2 mph - N/A   Overcast
12:49 PM 48.2 °F - 44.6 °F 87% 29.96 in 7.0 mi ESE 8.1 mph - N/A   Mostly Cloudy
2:55 PM 51.8 °F - 46.4 °F 82% 29.98 in 10.0 mi ESE 5.8 mph - N/A   Scattered Clouds
3:53 PM 50.0 °F - 42.8 °F 76% 30.00 in 10.0 mi SSW 4.6 mph - N/A Rain Light Rain
4:53 PM 48.2 °F - 44.6 °F 87% 30.01 in 10.0 mi SE 8.1 mph - N/A   Overcast
5:47 PM 50.0 °F - 44.6 °F 82% 30.01 in 10.0 mi SSE 4.6 mph - N/A   Overcast
6:47 PM 48.2 °F - 44.6 °F 87% 30.03 in 10.0 mi SE 5.8 mph - N/A Rain Light Rain
7:53 PM 46.4 °F - 46.4 °F 100% 30.05 in 10.0 mi Calm Calm - N/A Rain Light Rain
8:53 PM 48.2 °F - 44.6 °F 87% 30.07 in 10.0 mi SSW 3.5 mph - N/A Rain Light Rain
9:50 PM 46.4 °F 44.3 °F 44.6 °F 93% 30.08 in 10.0 mi WNW 4.6 mph - N/A   Mostly Cloudy
10:47 PM 44.6 °F 42.2 °F 42.8 °F 93% 30.10 in 10.0 mi WNW 4.6 mph - N/A   Mostly Cloudy